Location: El Bakhil
(32.7726°N, 5.5387°W)
Time: 11:51:05
(UTC+00:00)

STRAND 1 - Visible Passes

Search period start: 04 December 2022 00:00
Search period end: 14 December 2022 00:00
Orbit: 767 x 781 km, 98.4° (Epoch: 03 December)

Date Brightness Start Highest point End Pass type
(mag) Time Alt. Az. Time Alt. Az. Time Alt. Az.
04 Dec ? 06:09:49 10° SSE 06:14:48 54° ENE 06:19:47 10° N visible
04 Dec ? 18:27:43 23° ENE 18:29:20 27° E 18:33:35 10° SSE visible
04 Dec ? 20:08:06 28° WNW 20:08:22 28° WNW 20:12:39 10° SW visible
05 Dec ? 05:36:40 10° ESE 05:40:45 25° ENE 05:44:50 10° NNE visible
05 Dec ? 17:53:15 10° ENE 17:54:48 11° E 17:56:21 10° ESE visible
05 Dec ? 19:33:23 53° NNW 19:34:18 63° WNW 19:39:19 10° SSW visible
06 Dec ? 05:05:30 10° E 05:06:53 11° ENE 05:08:15 10° NE visible
06 Dec ? 06:40:17 10° S 06:45:23 72° WSW 06:50:29 10° NNW visible
06 Dec ? 18:58:40 42° NE 19:00:04 57° E 19:05:03 10° S visible
06 Dec ? 20:39:03 14° WNW 20:39:03 14° WNW 20:41:14 10° W visible
07 Dec ? 06:06:16 10° SSE 06:11:12 50° ENE 06:16:07 10° N visible
07 Dec ? 18:23:58 21° ENE 18:25:41 25° E 18:29:48 10° SSE visible
07 Dec ? 20:04:20 30° WNW 20:04:46 30° WNW 20:09:10 10° SW visible
08 Dec ? 05:33:14 10° ESE 05:37:09 23° ENE 05:41:05 10° NNE visible
08 Dec ? 17:50:35 10° E 17:51:08 10° E 17:51:42 10° E visible
08 Dec ? 19:29:37 53° NNW 19:30:41 69° WNW 19:35:44 10° SSW visible
09 Dec ? 05:03:12 10° ENE 05:03:18 10° ENE 05:03:24 10° ENE visible
09 Dec ? 06:36:38 10° S 06:41:45 78° WSW 06:46:52 10° NNW visible
09 Dec ? 18:54:54 38° NE 18:56:26 52° E 19:01:22 10° S visible
09 Dec ? 20:35:16 15° WNW 20:35:16 15° WNW 20:37:56 10° W visible
10 Dec ? 06:02:43 10° SE 06:07:35 46° ENE 06:12:26 10° N visible
10 Dec ? 18:20:10 19° ENE 18:22:02 23° E 18:26:00 10° SSE visible
10 Dec ? 20:00:33 32° WNW 20:01:10 33° WNW 20:05:40 10° SW visible
11 Dec ? 05:29:49 10° ESE 05:33:34 21° ENE 05:37:19 10° NNE visible
11 Dec ? 19:25:48 51° N 19:27:03 75° WNW 19:32:08 10° SSW visible
12 Dec ? 06:33:00 10° SSE 06:38:07 85° WSW 06:43:14 10° NNW visible
12 Dec ? 18:51:04 34° NE 18:52:47 48° E 18:57:41 10° S visible
12 Dec ? 20:31:26 16° WNW 20:31:31 16° WNW 20:34:37 10° WSW visible
13 Dec ? 05:59:11 10° SE 06:03:57 42° ENE 06:08:45 10° N visible
13 Dec ? 18:16:19 17° ENE 18:18:22 21° E 18:22:10 10° SE visible
13 Dec ? 19:56:42 33° NW 19:57:33 35° WNW 20:02:09 10° SW visible
